Tracking 17265 objects as of 4-September-2015
HD Live streaming from Space Station

Track Soyuz TMA-18M
and Space Station

SL-16 DEB

Track SL-16 DEB now!
10-day predictions
SL-16 DEB is classified as:


NORAD ID: 22289
Int'l Code: 1992-093D
Perigee: 748.9 km
Apogee: 840.5 km
Inclination: 70.8 °
Period: 100.6 minutes
Semi major axis: 7165 km
RCS: 0.0658 m2 (small)
Launch date: December 25, 1992
Source: Commonwealth of Independent States (former USSR) (CIS)

Note: This is SATELLITE DEBRIS
Your satellite tracking list
Your tracking list is empty





NASA's NSSDC Master Catalog

Two Line Element Set (TLE):
1 22289U 92093D   15245.57346471 +.00000047 +00000-0 +36446-4 0  9998
2 22289 070.8303 259.6739 0063926 271.2283 232.9306 14.31257630183827

Source of the keplerian elements: AFSPC

N2YO: 412